Flag for Canada Weather past 2 weeks in Fort Smith, Northwest Territories, Canada

Now
55 °F

Passing clouds.


Feels Like: 54 °F
Forecast: 33 / 60 °F
Wind: 7 mph from North

Location: Fort Smith

Current Time: Jun 2, 2015 at 3:56:34 PM

Latest Report: Jun 2, 2015 at 3:00 PM


Visibility: 15 mi

Pressure: 30.02 "Hg

Humidity: 38%

Dew point: 30 °F

Location of Fort SmithLocation

Historic Weather in Fort Smith — Graph

°F

Fort Smith temperature yesterday

Maximum temperature yesterday: 48 °F (at 12:00 AM)
Minimum temperature yesterday: 37 °F (at 6:00 AM)
Average temperature yesterday: 42 °F

Past Weeks' High & Low Weather Summary

 TemperatureHumidityPressure
High81 °F (May 21, 5:00 PM)94% (May 31, 10:00 PM)30.52 "Hg (May 31, 10:00 PM)
Low28 °F (May 28, 5:00 AM)11% (May 18, 4:00 PM)29.62 "Hg (May 31, 5:00 PM)
Average56 °F44%30.07 "Hg
* Reported May 18 2:00 PM — Jun 2 2:00 PM, Fort Smith, Weather by CustomWeather, © 2015

Note: Actual official high and low records may vary slightly from our data, if they occured in-between our weather recording intervals... More about our weather records

Advertising

Fort Smith weather history for previous 24 hours

 ConditionsComfort  
Time TempWeatherWind HumidityBarometerVisibility
2:00 PM
Tue, Jun 2
54 °FPassing clouds.9 mph41%30.03 "Hg15 mi
1:00 PM52 °FScattered clouds.5 mph38%30.04 "Hg15 mi
12:00 PM50 °FPartly sunny.3 mph40%30.07 "Hg15 mi
11:00 AM46 °FPartly sunny.7 mph43%30.09 "Hg15 mi
10:00 AM45 °FScattered clouds.3 mph46%30.10 "Hg15 mi
9:00 AM43 °FPassing clouds.5 mph46%30.12 "Hg15 mi
8:00 AM41 °FPassing clouds.6 mph53%30.11 "Hg15 mi
7:00 AM37 °FPassing clouds.2 mph75%30.13 "Hg15 mi
6:00 AM32 °FPassing clouds.2 mph80%30.12 "Hg15 mi
5:00 AM32 °FPassing clouds.5 mph87%30.11 "Hg15 mi
4:00 AM32 °FPassing clouds.5 mph80%30.10 "Hg15 mi
3:00 AM34 °FPassing clouds.6 mph81%30.09 "Hg15 mi
2:00 AM36 °FPassing clouds.6 mph75%30.09 "Hg15 mi
1:00 AM37 °FPassing clouds.7 mph65%30.09 "Hg15 mi
12:00 AM39 °FOvercast.8 mph61%30.09 "Hg15 mi
11:00 PM
Mon, Jun 1
39 °FPartly sunny.9 mph56%30.08 "Hg15 mi
10:00 PM41 °FPartly sunny.12 mph53%30.07 "Hg15 mi
9:00 PM41 °FOvercast.9 mph61%30.06 "Hg15 mi
8:00 PM43 °FScattered showers. Overcast.10 mph57%30.04 "Hg15 mi
7:00 PM45 °FScattered showers. Broken clouds.18 mph49%30.02 "Hg15 mi
6:00 PM45 °FScattered showers. Partly sunny.21 mph57%30.00 "Hg15 mi
5:00 PM43 °FSprinkles. Partly sunny.15 mph71%29.98 "Hg15 mi
4:00 PM45 °FSprinkles. Partly sunny.18 mph61%29.94 "Hg15 mi
3:00 PM46 °FSprinkles. Partly sunny.17 mph62%29.91 "Hg15 mi
Weather by CustomWeather, © 2015

See weather overviewHow to use our weather pages